Other Public Products
Issued by NWS Grand Forks, ND

Home | Current Version | Previous Version | Text Only | Print | Product List | Glossary On
Versions: 1 2 3 4 5 6 7 8 9 10 11 12 13 14 15 16 17 18 19 20 21 22 23 24 25 26 27 28 29 30 31 32 33 34 35 36 37 38 39 40 41 42 43 44 45 46 47 48 49 50
000
FPUS83 KFGF 032231
OPUFGF
PRAIRIE TO PINES WEATHER ROUNDUP
NATIONAL WEATHER SERVICE EASTERN NORTH DAKOTA/GRAND FORKS ND
500 PM CDT TUE MAY 03 2016

 **SATELLITE DATA USED TO AUGMENT SKY COVER AT AUTOMATED STATIONS**
 *****  WEATHER ACROSS EASTERN NORTH DAKOTA  *****

CITY           SKY/WX    TMP DP  RH WIND       PRES   REMARKS
GRAND FORKS    SUNNY     66  31  27 N23G39    29.89S
GRAND FORKS AF SUNNY     66  29  24 N26G33    29.91S
GRAND CITY NWS NOT AVBL
BUXTON           N/A     67  31  26 N16G36      N/A
DEVILS LAKE    SUNNY     67  23  19 N25G36    29.96S
FARGO          SUNNY     69  27  20 N32G40    29.86R
WAHPETON ARPT  CLEAR     70  25  18 N23G31    29.84R
$$

 *****  WEATHER ACROSS CENTRAL AND WESTERN NORTH DAKOTA  *****

CITY           SKY/WX    TMP DP  RH WIND       PRES   REMARKS
JAMESTOWN      SUNNY     69  27  20 N26G33    29.92S
BISMARCK       SUNNY     75  35  23 N18G28    29.97S
MINOT          SUNNY     79  28  15 N18G29    29.99F
MINOT AFB      SUNNY     74  32  21 N16G25    29.98F
GARRISON         N/A     75  34  22 N22G32    29.99F
WILLISTON      SUNNY     81  39  22 N10       30.03S
DICKINSON      SUNNY     76  35  22 N16G28    30.02F
HETTINGER      SUNNY     76  35  22 NW10      30.04F
$$

 *****  OTHER OBSERVATIONS NORTHEAST NORTH DAKOTA  *****

CITY           SKY/WX    TMP DP  RH WIND       PRES   REMARKS
WALHALLA       FAIR      63  32  31 N25G32    29.98R
LANGDON        FAIR      61  25  25 N28       29.98S
CAVALIER       FAIR      63  32  31 N22G32    29.95R
GRAFTON        FAIR      64  30  27 N25G33    29.94R
CANDO          FAIR      66  19  16 N25G33    30.01R
FORT TOTTEN      N/A     65  24  21 N8        29.95S
ROLLA          FAIR      64  25  22 N20G28    30.01R
RUGBY          FAIR      68  25  19 N21G28    29.98F
 ***** THE ABOVE OBSERVATIONS ARE NON NWS ARE NOT QUALITY
        CONTROLLED AND MAY MIS-REPORT RAIN FOR SNOW...
$$

 *****  OTHER OBSERVATIONS SOUTHEAST NORTH DAKOTA *****

CITY           SKY/WX    TMP DP  RH WIND       PRES   REMARKS
COOPERSTOWN    NOT AVBL
VALLEY CITY    FAIR      68  28  22 N23G32    29.92S
OAKES            N/A    N/A N/A N/A MISG        N/A
GWINNER        FAIR      72  28  20 N21G32    29.88S
BUFFALO          N/A     66  23  19 N29G40      N/A
WYNDMERE         N/A     72  28  20 N25         N/A
 ***** THE ABOVE OBSERVATIONS ARE NON NWS ARE NOT QUALITY
       CONTROLLED AND MAY MIS-REPORT RAIN FOR SNOW...
$$

  *****  WEATHER ACROSS NORTHERN MINNESOTA  *****

CITY           SKY/WX    TMP DP  RH WIND       PRES   REMARKS
FLAG ISLAND    MOSUNNY   55  36  47 N13       29.88R
WARROAD        MOSUNNY   61  34  36 N13G20    29.89R
ROSEAU         SUNNY     63  34  34 NW21      29.88S
HALLOCK        SUNNY     64  25  22 N20G29    29.92R
THF RVR FALLS  SUNNY     63  25  23 N23G29    29.89R
HALSTAD          N/A     68  25  19 N29G40      N/A
FOSSTON        SUNNY     66  25  20 N20G30    29.86R
BAUDETTE       SUNNY     61  31  32 N17G31    29.85R
WASKISH        SUNNY     63  34  34 N15G21    29.84R
CROOKSTON      SUNNY     64  27  24 N26G32    29.89R
$$
  *****  WEATHER ACROSS CENTRAL AND WEST MINNESOTA  *****

CITY           SKY/WX    TMP DP  RH WIND       PRES   REMARKS
BEMIDJI        SUNNY     62  26  25 N13G26    29.82R
PARK RAPIDS    SUNNY     66  19  16 N21G35    29.78R
WADENA         SUNNY     66  30  26 N18G29    29.77S
DETROIT LAKES  SUNNY     64  27  24 N14G29    29.84R
MOORHEAD       SUNNY     70  27  19 N30G37    29.85S
FERGUS FALLS   SUNNY     66  30  26 N22G33    29.79R
ELBOW LAKE     FAIR      66  30  26 N25G31    29.81R
MORRIS MN      SUNNY     72  27  18 N32G43    29.78S
STAPLES        SUNNY     68  21  17 N20G28    29.76R
WHEATON        SUNNY     72  32  23 N28G37    29.84R
$$
  *****  WEATHER ELSEWHERE ACROSS MINNESOTA  *****

CITY           SKY/WX    TMP DP  RH WIND       PRES   REMARKS
DULUTH         PTSUNNY   67  27  22 N22G36    29.68R
INTRNTL FALLS  PTSUNNY   59  33  37 N17       29.81R
ELY            PTSUNNY   59  27  29 N10G23    29.73R
CLOQUET        MOSUNNY   64  21  19 N20G33    29.69R
BRAINERD       SUNNY     67  28  23 N21G35    29.74R
HIBBING        MOSUNNY   63  26  24 N17G28    29.72R
ALEXANDRIA     SUNNY     68  25  19 N24G33    29.78R
SAINT CLOUD    MOSUNNY   73  26  17 NW21G32   29.68F
MINNEAPOLIS    PTSUNNY   70  39  32 W15G25    29.69F
$$

  *****  WEATHER ACROSS SOUTH DAKOTA  *****

CITY           SKY/WX    TMP DP  RH WIND       PRES   REMARKS
SIOUX FALLS    PTSUNNY   69  43  38 W17G26    29.86F
BROOKINGS      MOSUNNY   73  40  30 NW26G35   29.80F
WATERTOWN      SUNNY     74  35  24 N28G37    29.83R
HURON          MOSUNNY   75  41  29 NW21G31   29.85F
SISSETON         N/A     72  25  17 N23G33    29.83R
ABERDEEN       SUNNY     75  30  19 N24G38    29.88R
MITCHELL       SUNNY     74  44  34 NW21      29.89F
PIERRE         SUNNY     76  40  27 NW20G26   29.93F
MOBRIDGE       SUNNY     79  42  26 N22G29    29.91F
RAPID CITY     SUNNY     73  39  29 N17G26    30.07F
$$

  *****  SOME WEATHER IN NEARBY STATES *****

CITY           SKY/WX    TMP DP  RH WIND       PRES   REMARKS
GLASGOW MT     SUNNY     80  39  23 NW9       30.05F
GREAT FALLS MT SUNNY     78  31  17 W6        30.07F
CHEYENNE WY    MOSUNNY   61  32  33 NW16G24   30.23F
SCOTTSBLUFF NE SUNNY     73  36  25 N10       30.11F
OMAHA NE       PTSUNNY   71  41  33 W20       29.93F
DES MOINES IA  PTSUNNY   68  39  34 W13       29.89F
DAVENPORT IA   MOSUNNY   67  40  37 W21G26    29.86F
CHICAGO IL     PTSUNNY   65  38  36 W16G22    29.80F
EAU CLAIRE WI  PTSUNNY   69  37  30 W20G32    29.66F
LA CROSSE WI   CLOUDY    69  37  30 W15G28    29.72F
$$

  *****  SOME NATIONAL WEATHER *****

CITY           SKY/WX    TMP DP  RH WIND       PRES   REMARKS
LA GUARDIA NY  CLOUDY    53  51  93 NE8       29.82R
RALEIGH NC     TSTM      68  64  88 SW8       29.74S
ATLANTA GA     PTSUNNY   76  57  51 W14       29.83F
NEW ORLEANS LA PTSUNNY   74  65  73 NW13      29.91S
OKLAHOMA CITY  PTSUNNY   69  44  40 S5        30.01F
ALBUQUERQUE NM MOSUNNY   72  22  15 N10       30.15F
SALT LAKE CITY MOSUNNY   73  31  21 N8        30.17F
LOS ANGELES CA PTSUNNY   68  55  63 W8        29.93F
BOISE ID       SUNNY     78  28  16 SE9       30.07F
SEATTLE WA     PTSUNNY   71  53  52 VRB3      30.05S
$$

*** WEATHER ACROSS MANITOBA...SASKATCHEWAN AND ONTARIO ***
                ***ONTARIO***

CITY           SKY/WX    TMP DP  RH WIND       PRES   REMARKS
GERALDTON      CLOUDY    43  37  81 NW14G23   29.66R
THUNDER BAY    PTSUNNY   57  34  41 NW18G28   29.66R
SIOUX LOOKOUT  MOSUNNY   54  34  47 N7G26     29.85R
TORONTO        PTSUNNY   52  39  62 SE6       29.80F
BIG TROUT LK   LGT RAIN  36  28  75 N17G26    29.90R
PICKLE LAKE    PTSUNNY   45  34  65 N8G23     29.81S
DRYDEN         PTSUNNY   55  32  41 N10G23    29.86R
KENORA         MOSUNNY   57  30  35 N17G25    29.89R
$$
                *** MANITOBA***

CITY           SKY/WX    TMP DP  RH WIND       PRES   REMARKS
BRANDON        SUNNY     66  25  20 N17G29    30.03R
DAUPHIN        SUNNY     61  28  29 NE8G21    30.06S
ISLAND LAKE    MOSUNNY   45  27  49 NW16      30.02F
PILOT MOUND      N/A     63  25  23 N20G30      N/A
THE PAS        MOSUNNY   61  28  29 N6        30.06F
THOMPSON       SUNNY     54  21  28 NE12G24   30.07R
WINNIPEG       SUNNY     59  34  38 N20G26    29.98R
LYNN LAKE      SUNNY     57  27  30 SE8       30.05F
CHURCHILL      PTSUNNY   27  19  74 N13       30.19S WCI  16
GILLAM         MOSUNNY   41  18  38 N7G17     30.11R
$$
                ***SASKATCHEWAN***

CITY           SKY/WX    TMP DP  RH WIND       PRES   REMARKS
ESTEVAN        MOSUNNY   79  39  24 N16       30.03F
KINDERSLEY     MOSUNNY   84  36  17 SW10G17   29.98F
LLOYDMINSTER   MOSUNNY   82  37  20 SW12G22   29.94F
PRINCE ALBERT  CLOUDY    77  39  25 SE12      29.99F
REGINA         MOSUNNY   81  37  21 NE5       30.02F
YORKTON        SUNNY     70  32  24 N10G21    30.04F
N. BATTLEFORD  SUNNY     84  34  16 SW10      29.96F   C1F1C2F2C3F3C4F4C5F5C6F6C7F7C8F8C9F9CaFaCbFbCcFcCdFdCe!



USA.gov is the U.S. government's official web portal to all federal, state and local government web resources and services.